• Join FlightAware (Why Join?)
  • Login
  • US Flag 
07:13PM EST


 

Airport Tracker/Info


-or-


 

Live Flight TrackerFlight Track Log ✈ TAM3519 ✈ 10-Nov-2013 ✈ SBBR / BSB - SBVT / VIX

Flight Track Log - Related Links

Times and Time Zones

All times are in EST time to prevent confusion due to time zone crossing. See the TAM3519 flight status page for this flight to view local times or setup timezone preferences in your user account.

Time Position Orientation Groundspeed Altitude Reporting Facility
EST Latitude Longitude Course Direction KTS MPH feet Rate Location/Type
06:52PM -15.8630 -47.9200 270° West 110 127  Level FlightAware
06:52PM -15.8610 -47.8930 86° East 175 201 4,000 4,839 Climbing FlightAware
06:53PM -15.8600 -47.8700 87° East 173 199 5,000 1,920 Climbing FlightAware
06:53PM -15.8590 -47.8510 87° East 175 201 5,600 1,500 Climbing FlightAware
06:54PM -15.8570 -47.8280 85° East 179 206 6,200 1,071 Climbing FlightAware
06:54PM -15.8550 -47.8010 86° East 208 239 6,600 712 Climbing FlightAware
06:55PM -15.8530 -47.7690 86° East 247 284 6,900 750 Climbing FlightAware
06:55PM -15.8530 -47.7590 90° East 257 296 7,100 1,731 Climbing FlightAware
06:56PM -15.8730 -47.7050 111° Southeast 284 327 8,400 2,091 Climbing FlightAware
06:56PM -15.8870 -47.6730 114° Southeast 290 334 9,400 2,215 Climbing FlightAware
06:57PM -15.9100 -47.6230 116° Southeast 304 350 10,800 1,650 Climbing FlightAware
06:57PM -15.9350 -47.5660 115° Southeast 340 391 11,600 1,694 Climbing FlightAware
06:58PM -15.9660 -47.4980 115° Southeast 347 399 13,200 2,171 Climbing FlightAware
06:59PM -16.0120 -47.4090 118° Southeast 356 410 15,400 2,600 Climbing FlightAware
07:00PM -16.0420 -47.3710 129° Southeast 331 381 17,100 2,047 Climbing FlightAware
07:00PM -16.0930 -47.2970 126° Southeast 354 407 18,300 1,582 Climbing FlightAware
07:01PM -16.1430 -47.2210 124° Southeast 356 410 20,000 1,418 Climbing FlightAware
07:02PM -16.1880 -47.1340 118° Southeast 381 438 20,900 1,200 Climbing FlightAware
07:03PM -16.2320 -47.0510 119° Southeast 389 448 22,100 1,259 Climbing FlightAware
07:04PM -16.2580 -47.0000 118° Southeast 395 455 22,600 1,000 Climbing FlightAware
07:04PM -16.2860 -46.9470 119° Southeast 404 465 23,200 367 Climbing FlightAware
07:05PM -16.3330 -46.8550 118° Southeast 404 465 23,200  Level FlightAware
07:06PM -16.3600 -46.8020 118° Southeast 404 465 23,200  Level FlightAware
07:07PM -16.4050 -46.7130 118° Southeast 404 465 23,200  Level FlightAware
07:07PM -16.4140 -46.6960 119° Southeast 404 465 23,200  Level FlightAware
07:08PM -16.4500 -46.6250 118° Southeast 404 465 23,200 2,968 Level FlightAware
07:09PM -16.5360 -46.4670 120° Southeast 650 748 27,900 2,722 Climbing FlightAware
07:10PM -16.5870 -46.3660 118° Southeast 436 502 28,100 110 Climbing FlightAware
07:10PM -16.6260 -46.2900 118° Southeast 436 502 28,100  Level FlightAware
07:11PM -16.6670 -46.2100 118° Southeast 436 502 28,100  Level FlightAware
07:12PM -16.6970 -46.1510 118° Southeast 436 502 28,100  Level FlightAware
07:13PM -16.7360 -46.0740 118° Southeast 436 502 28,100 2,098 Level FlightAware
07:14PM -16.8870 -45.8810 129° Southeast 454 522 32,400 2,468 Climbing FlightAware
07:15PM -16.9430 -45.7890 122° Southeast 455 524 33,200 914 Climbing FlightAware
07:16PM -17.0030 -45.6920 123° Southeast 453 521 34,000 825 Climbing FlightAware
07:16PM -17.0340 -45.6420 123° Southeast 455 524 34,300 840 Climbing FlightAware
07:17PM -17.1190 -45.5020 122° Southeast 452 520 35,400 761 Climbing FlightAware
07:19PM -17.1930 -45.3780 122° Southeast 456 525 36,100 564 Climbing FlightAware
07:19PM -17.2490 -45.2840 122° Southeast 461 531 36,500 514 Climbing FlightAware
07:20PM -17.3110 -45.1790 122° Southeast 462 532 37,000 505 Climbing FlightAware
07:21PM -17.3570 -45.1020 122° Southeast 465 535 37,300 364 Climbing FlightAware
07:21PM -17.3850 -45.0530 121° Southeast 466 536 37,400 370 Climbing FlightAware
07:22PM -17.4440 -44.9480 121° Southeast 466 536 37,800 417 Climbing FlightAware
07:23PM -17.5040 -44.8310 118° Southeast 465 535 38,200 375 Climbing FlightAware
07:24PM -17.5270 -44.7860 118° Southeast 465 535 38,300 257 Climbing FlightAware
07:24PM -17.5780 -44.6880 119° Southeast 465 535 38,500 186 Climbing FlightAware
07:25PM -17.6220 -44.6020 118° Southeast 465 535 38,600 294 Climbing FlightAware
07:26PM -17.6830 -44.4870 119° Southeast 465 535 39,000 229 Climbing FlightAware
07:27PM -17.7350 -44.3870 119° Southeast 467 537 39,000  Level FlightAware
07:28PM -17.7870 -44.2870 119° Southeast 469 540 39,000  Level FlightAware
07:28PM -17.8070 -44.2490 119° Southeast 470 541 39,000  Level FlightAware
07:29PM -17.8640 -44.1380 118° Southeast 471 542 39,000  Level FlightAware
07:30PM -17.9180 -44.0340 119° Southeast 470 541 39,000  Level FlightAware
07:31PM -17.9680 -43.9360 118° Southeast 470 541 39,000  Level FlightAware
07:32PM -18.0310 -43.8150 119° Southeast 470 541 39,000  Level FlightAware
07:33PM -18.0770 -43.7250 118° Southeast 471 542 39,000  Level FlightAware
07:33PM -18.1090 -43.6620 118° Southeast 472 543 39,000  Level FlightAware
07:34PM -18.1560 -43.5740 119° Southeast 471 542 39,000  Level FlightAware
07:34PM -18.1990 -43.4920 119° Southeast 470 541 39,000  Level FlightAware
07:35PM -18.2540 -43.3850 118° Southeast 470 541 39,000  Level FlightAware
07:36PM -18.3100 -43.2670 117° Southeast 470 541 39,000  Level FlightAware
07:37PM -18.3640 -43.1540 117° Southeast 470 541 39,000  Level FlightAware
07:38PM -18.4270 -43.0250 117° Southeast 469 540 39,000  Level FlightAware
07:39PM -18.4850 -42.9240 121° Southeast 468 539 39,000  Level FlightAware
07:40PM -18.5350 -42.8370 121° Southeast 467 537 39,000  Level FlightAware
07:41PM -18.5840 -42.7510 121° Southeast 466 536 39,000  Level FlightAware
07:41PM -18.6110 -42.7050 122° Southeast 466 536 39,000  Level FlightAware
07:42PM -18.6800 -42.5830 121° Southeast 466 536 39,000  Level FlightAware
07:43PM -18.7410 -42.4780 122° Southeast 466 536 39,000  Level FlightAware
07:44PM -18.7830 -42.3960 118° Southeast 468 539 39,000  Level FlightAware
07:45PM -18.8500 -42.2810 122° Southeast 466 536 39,000  Level FlightAware
07:46PM -18.9190 -42.1640 122° Southeast 469 540 39,000  Level FlightAware
07:46PM -18.9740 -42.0670 121° Southeast 470 541 39,000  Level FlightAware
07:48PM -19.0480 -41.9380 121° Southeast 471 542 39,000  Level FlightAware
07:48PM -19.0980 -41.8500 121° Southeast 471 542 39,000  Level FlightAware
07:49PM -19.1520 -41.7550 121° Southeast 470 541 39,000 -231 Level FlightAware
07:50PM -19.2170 -41.6400 121° Southeast 468 539 38,600 -1,213 Descending FlightAware
07:51PM -19.2550 -41.5740 121° Southeast 462 532 37,200 -2,769 Descending FlightAware
07:51PM -19.2890 -41.5140 121° Southeast 463 533 35,600 -3,086 Descending FlightAware
07:52PM -19.3300 -41.4420 121° Southeast 463 533 33,600 -3,360 Descending FlightAware
07:53PM -19.3970 -41.3240 121° Southeast 473 544 30,000 -3,720 Descending FlightAware
07:53PM -19.4450 -41.2390 121° Southeast 482 555 27,400 -2,750 Descending FlightAware
07:55PM -19.4920 -41.1550 121° Southeast 487 560 24,500 -2,672 Descending FlightAware
07:56PM -19.5580 -41.0370 121° Southeast 470 541 21,300 -3,333 Descending FlightAware
07:56PM -19.5880 -40.9840 121° Southeast 462 532 20,000 -2,850 Descending FlightAware
07:57PM -19.6420 -40.8880 121° Southeast 439 505 17,500 -1,548 Descending FlightAware
07:58PM -19.7000 -40.7810 120° Southeast 438 504 16,800 -457 Descending FlightAware
07:59PM -19.7210 -40.7430 120° Southeast 438 504 16,800 -3,204 Level FlightAware
08:00PM -19.8770 -40.6600 153° Southeast 373 429 11,300 -2,647 Descending FlightAware
08:01PM -19.9670 -40.6270 161° South 317 365 10,800 -514 Descending FlightAware
08:02PM -20.0270 -40.6080 163° South 289 333 10,400 -583 Descending FlightAware
08:02PM -20.0640 -40.5960 163° South 270 311 10,100 -656 Descending FlightAware
08:03PM -20.1030 -40.5830 163° South 252 290 9,700 -857 Descending FlightAware
08:03PM -20.1230 -40.5760 162° South 254 292 9,300 -1,350 Descending FlightAware
08:03PM -20.1500 -40.5680 164° South 251 289 8,800 -1,125 Descending FlightAware
08:04PM -20.1750 -40.5590 161° South 249 287 8,400 -1,347 Descending FlightAware
08:04PM -20.2040 -40.5490 162° South 251 289 7,700 -1,347 Descending FlightAware
08:05PM -20.2260 -40.5420 163° South 251 289 7,300 -1,102 Descending FlightAware
08:05PM -20.2520 -40.5330 162° South 250 288 6,800 -1,080 Descending FlightAware
08:05PM -20.2720 -40.5260 162° South 250 288 6,400 -875 Descending FlightAware
08:06PM -20.2980 -40.5180 164° South 244 281 6,100 -429 Descending FlightAware
08:06PM -20.3350 -40.5060 163° South 223 257 6,000 -97 Descending FlightAware
08:07PM -20.3610 -40.4970 162° South 216 249 6,000 -194 Level FlightAware
08:07PM -20.3900 -40.4860 160° South 206 237 5,800 -643 Descending FlightAware
08:08PM -20.4130 -40.4710 149° Southeast 196 226 5,400 -1,077 Descending FlightAware
08:08PM -20.4220 -40.4660 152° Southeast 197 227 5,100 -947 Descending FlightAware
08:09PM -20.4530 -40.4460 149° Southeast 196 226 4,500 -1,053 Descending FlightAware
08:09PM -20.4700 -40.4360 151° Southeast 197 227 4,100 -612 Descending FlightAware
08:10PM -20.4940 -40.4130 138° Southeast 193 222 4,000 -150 Descending FlightAware
08:10PM -20.4940 -40.4090 90° East 191 220 4,000 -471 Level FlightAware
08:10PM -20.4730 -40.3870 44° Northeast 183 211 3,600 -472 Descending FlightAware
08:11PM -20.4380 -40.3930 351° North 179 206 3,300 -424 Descending FlightAware
08:12PM -20.4020 -40.3830 15° North 176 203 3,000 -369 Descending FlightAware
08:12PM -20.3870 -40.3740 29° Northeast 174 200 2,900 -240 Descending FlightAware
08:13PM -20.3710 -40.3620 35° Northeast 173 199 2,800 -625 Descending FlightAware
08:13PM -20.3530 -40.3490 34° Northeast 172 198 2,400 -894 Descending FlightAware
08:13PM -20.3430 -40.3430 29° Northeast 160 184 2,100 -842 Descending FlightAware
08:14PM -20.3240 -40.3310 31° Northeast 138 159 1,600 -947 Descending FlightAware
08:14PM -20.3070 -40.3190 34° Northeast 133 153 1,200 -900 Descending FlightAware
08:15PM -20.3010 -40.3150 32° Northeast 134 154 1,000 -857 Descending FlightAware
08:15PM -20.2790 -40.3010 31° Northeast 132 152 400 -656 Descending FlightAware
08:16PM -20.2730 -40.2970 32° Northeast 131 151 300 -250 Descending FlightAware
08:16PM -20.2610 -40.2890 32° Northeast 134 154 -720 Descending FlightAware
08:17PM -20.2540 -40.2840 34° Northeast 132 152  Level FlightAware
08:17PM -20.2520 -40.2820 43° Northeast 132 152  Level FlightAware
08:18PM -20.2520 -40.2830 270° West 132 152  Level FlightAware
08:18PM -20.2550 -40.2850 212° Southwest 132 152  Level FlightAware
08:19PM -20.2570 -40.2870 223° Southwest 132 152  Level FlightAware
08:19PM -20.2570 -40.2880 270° West 132 152  Level FlightAware
08:22PM -20.2581 -40.2864 125° Southeast  Level Estimated
08:23PM -20.2581 -40.2864 13° North  Level Estimated
08:23PM -20.2610 -40.2750 13° North 132 152  Level FlightAware
08:24PM -20.2581 -40.2864 13° North  Level Estimated
08:24PM -20.2570 -40.2880 288° West 132 152  Level FlightAware
08:25PM -20.2610 -40.2740 107° East 132 152  Level FlightAware
08:25PM -20.2570 -40.2880 287° West 132 152  Level FlightAware
08:26PM -20.2610 -40.2740 107° East 132 152  Level FlightAware
08:26PM -20.2570 -40.2880 287° West 132 152  Level FlightAware
08:31PM -20.2610 -40.2750 108° East 132 152  Level FlightAware
08:31PM -20.2570 -40.2880 288° West 132 152  Level FlightAware
08:32PM -20.2600 -40.2750 104° East 132 152  Level FlightAware
08:34PM -20.2570 -40.2880 284° West 132 152  Level FlightAware
08:35PM -20.2600 -40.2750 104° East 132 152  Level FlightAware
08:35PM -20.2570 -40.2880 284° West 132 152  Level FlightAware
08:38PM -20.2610 -40.2740 107° East 132 152  Level FlightAware
08:39PM -20.2570 -40.2880 287° West 132 152  Level FlightAware
08:43PM -20.2610 -40.2740 107° East 132 152  Level FlightAware
08:43PM -20.2570 -40.2880 287° West 132 152  Level FlightAware
08:46PM -20.2610 -40.2740 107° East 132 152  Level FlightAware
08:46PM -20.2610 -40.2750 270° West 132 152  Level FlightAware
08:46PM -20.2570 -40.2880 288° West 132 152  Level FlightAware
08:47PM -20.2610 -40.2740 107° East 132 152  Level FlightAware
08:48PM -20.2570 -40.2880 287° West 132 152  Level FlightAware
08:50PM -20.2600 -40.2750 104° East 132 152  Level FlightAware
08:50PM -20.2610 -40.2740 137° Southeast 132 152  Level FlightAware